Content
SEND FEEDBACK

Daily
Averages
Monthly
Summary
French Polynesia

HITIAA, FRENCH POLYNESIA


Home > Oceania > French Polynesia
Elevation: 7 feet     Latitude: 17 33S     Longitude: 149 37W

WEATHER
 
SELECT A DAY
Number of Records: 207,916;   Date Range: 6/30/96 - 7/11/14
 
SHARE

PRINT THIS DATA

[ ← Previous Day ]
WEATHER ALMANAC - APRIL 7, 2013
[ Next Day → ]
[ °C ]   °F
Weather ElementAverageHighLow
Temperature81.8 °F87.8 °F (3:30 pm)77 °F (11:00 pm)
Dewpoint72.9 °F75.2 °F (8:00 am)69.8 °F (4:00 pm)
Humidity73.7 %83 % (12:30 am)58 % (3:30 pm)
Barometer29.87 in29.92 in (8:00 am)29.83 in (3:00 am)
Wind Speed4.9 mph13.8 mph (11:30 am)
Weather ElementAverage
Visibility7.4 mi
Wind DirectionESE (127.1 °)

Weather ElementTotal
Precipitation---
Cooling Degree Days17.4 (Base 65)
Growing Degree Days32.4 (Base 50)
Averaged from 55 records on April 7, 2013
WEATHER CONDITIONS BREAKOUT
WIND DIRECTION BREAKOUT
WEATHER BY HOUR - APRIL 7, 2013
[ °C ]   °F
Local TimeTemperatureDewpointHumidityBarometerVisibilityWind DirectionWind SpeedGust SpeedPrecipitationEventsConditions
12:30 AM78.8 °F73.4 °F83 %29.86 in6.2 miVariable3.5 mphScattered Clouds
1:00 AM78.8 °F73.4 °F83 %29.86 in6.2 miCalmScattered Clouds
1:30 AM78.8 °F73.4 °F83 %29.86 in6.2 miCalmScattered Clouds
2:00 AM79.0 °F73.0 °F78 %29.87 in12.0 miNE (50°)8.9 mphThunderstormThunderstorm
2:00 AM78.8 °F73.4 °F83 %29.86 in6.2 miNE (40°)5.8 mphThunderstormMostly Cloudy
2:30 AM80.6 °F73.4 °F79 %29.86 in6.2 miNE (50°)5.8 mphThunderstormScattered Clouds
3:00 AM78.8 °F73.4 °F83 %29.83 in6.2 miENE (60°)5.8 mphMostly Cloudy
3:30 AM78.8 °F73.4 °F83 %29.83 in6.2 miWSW (240°)3.5 mph
4:00 AM80.6 °F73.4 °F79 %29.83 in6.2 miCalmMostly Cloudy
4:30 AM80.6 °F71.6 °F74 %29.83 in6.2 miWSW (240°)3.5 mph
5:00 AM80.0 °F73.0 °F74 %29.85 in31.0 miWSW (240°)4.5 mphClear
5:00 AM78.8 °F73.4 °F83 %29.83 in6.2 miVariable2.3 mph
5:30 AM78.8 °F73.4 °F83 %29.83 in6.2 miVariable2.3 mph
6:00 AM78.8 °F73.4 °F83 %29.83 in6.2 miEast (100°)4.6 mphScattered Clouds
6:30 AM78.8 °F71.6 °F78 %29.89 in6.2 miCalmScattered Clouds
7:00 AM80.6 °F73.4 °F79 %29.89 in6.2 miCalmScattered Clouds
7:30 AM82.4 °F71.6 °F70 %29.89 in6.2 miCalmScattered Clouds
8:00 AM84.0 °F75.0 °F67 %29.92 in9.0 miSSW (210°)3.5 mphMostly Cloudy
8:00 AM84.2 °F75.2 °F74 %29.92 in6.2 miSSW (210°)3.5 mphScattered Clouds
8:30 AM84.2 °F75.2 °F74 %29.89 in6.2 miVariable3.5 mphScattered Clouds
9:00 AM86.0 °F75.2 °F70 %29.92 in6.2 miWSW (240°)4.6 mphScattered Clouds
9:30 AM84.2 °F75.2 °F74 %29.92 in6.2 miVariable2.3 mphScattered Clouds
10:00 AM84.2 °F75.2 °F74 %29.89 in6.2 miNorth (360°)8.1 mphScattered Clouds
10:30 AM82.4 °F73.4 °F74 %29.89 in6.2 miENE (60°)11.5 mphScattered Clouds
11:00 AM86.0 °F75.0 °F63 %29.89 in12.0 miSSW (210°)12.7 mphPartly Cloudy
11:00 AM86.0 °F75.2 °F70 %29.89 in6.2 miSSW (210°)12.7 mphScattered Clouds
11:30 AM86.0 °F75.2 °F70 %29.89 in6.2 miSSW (210°)13.8 mphScattered Clouds
12:00 PM86.0 °F73.4 °F66 %29.89 in6.2 miSSW (200°)11.5 mphScattered Clouds
12:30 PM84.2 °F73.4 °F70 %29.89 in6.2 miSW (230°)8.1 mphScattered Clouds
1:00 PM84.2 °F73.4 °F70 %29.86 in6.2 miSW (220°)3.5 mphScattered Clouds
1:30 PM84.2 °F73.4 °F70 %29.83 in6.2 miSW (230°)8.1 mphMostly Cloudy
2:00 PM85.0 °F74.0 °F62 %29.86 in16.0 miWSW (250°)5.8 mphPartly Cloudy
2:00 PM84.2 °F73.4 °F70 %29.86 in6.2 miWSW (250°)5.8 mphMostly Cloudy
2:30 PM84.2 °F73.4 °F70 %29.86 in6.2 miWNW (290°)4.6 mphMostly Cloudy
3:00 PM86.0 °F73.4 °F66 %29.86 in6.2 miNorth (360°)5.8 mphMostly Cloudy
3:30 PM87.8 °F71.6 °F58 %29.83 in6.2 miVariable2.3 mphMostly Cloudy
4:00 PM86.0 °F69.8 °F58 %29.86 in6.2 miCalmThunderstormScattered Clouds
4:30 PM84.2 °F71.6 °F66 %29.86 in6.2 miSouth (180°)3.5 mphThunderstormScattered Clouds
5:00 PM84.0 °F72.0 °F60 %29.86 in12.0 miSSE (150°)6.7 mphThunderstormLight Thunderstorm
5:00 PM84.2 °F71.6 °F66 %29.86 in6.2 miVariable3.5 mphScattered Clouds
5:30 PM80.6 °F73.4 °F79 %29.86 in6.2 miENE (60°)10.4 mphScattered Clouds
6:00 PM80.6 °F71.6 °F74 %29.83 in6.2 miVariable2.3 mphScattered Clouds
6:30 PM80.6 °F73.4 °F79 %29.83 in6.2 miSouth (170°)3.5 mphMostly Cloudy
7:00 PM80.6 °F73.4 °F79 %29.86 in6.2 miSSW (200°)5.8 mphScattered Clouds
7:30 PM80.6 °F71.6 °F74 %29.89 in6.2 miSSW (200°)5.8 mphMostly Cloudy
8:00 PM80.0 °F72.0 °F71 %29.90 in12.0 miSouth (180°)4.6 mphPartly Cloudy
8:00 PM78.8 °F71.6 °F78 %29.89 in6.2 miSouth (180°)4.6 mphScattered Clouds
8:30 PM80.6 °F73.4 °F79 %29.89 in6.2 miSouth (190°)8.1 mphScattered Clouds
9:00 PM80.6 °F73.4 °F79 %29.89 in6.2 miSouth (180°)6.9 mphScattered Clouds
9:30 PM80.6 °F69.8 °F70 %29.89 in6.2 miEast (100°)6.9 mphPartly Cloudy
10:00 PM78.8 °F69.8 °F74 %29.89 in6.2 miEast (100°)3.5 mphScattered Clouds
10:30 PM78.8 °F69.8 °F74 %29.89 in6.2 miSouth (170°)3.5 mphPartly Cloudy
11:00 PM78.0 °F70.0 °F70 %29.90 in12.0 miENE (70°)2.3 mphScattered Clouds
11:00 PM77.0 °F69.8 °F78 %29.89 in6.2 miVariable2.3 mphPartly Cloudy
11:30 PM77.0 °F69.8 °F78 %29.89 in6.2 miEast (100°)3.5 mphPartly Cloudy
Hourly data recorded from NTAA, located miles away from Hitiaa, French Polynesia







STORIES FROM OUR PARTNERS